Wind_Speed
51 50 52 54 54 55 57 59 62 67 68 67 66 62 58 62 71 76 75 73 72 72 75 77 77 76 76 74 71 67 64 61 57 55 53 50 47 44 42 42 43 43 42 44 47 49 51 53 54 54 55 57 58 59 58 58 58 57 56 56 56 55 56 60 66 74 76 74 76 80 80 78 75 72 70 69 68 65 63 61 58 57 57 57 56
52 52 54 55 56 57 58 59 63 67 68 66 65 61 59 65 74 78 78 75 72 73 77 78 78 78 77 75 73 69 65 61 59 57 54 51 48 45 43 43 43 42 42 43 46 48 50 52 52 52 54 57 58 58 58 59 59 59 57 57 58 57 57 59 64 71 77 76 76 80 81 81 80 78 75 73 72 69 65 63 61 59 58 57 55
55 55 56 57 58 60 60 61 64 67 67 64 60 59 63 71 77 80 79 73 71 76 78 79 79 79 77 76 75 71 66 63 61 59 56 52 48 45 43 42 43 43 42 42 45 48 49 50 50 51 53 56 58 58 58 60 60 60 59 58 59 59 59 60 62 68 75 78 77 79 81 81 82 82 80 78 77 72 68 66 63 61 60 58 56
58 57 58 59 60 62 63 64 66 67 65 62 59 62 69 76 79 81 78 71 71 76 78 79 79 78 77 77 76 73 69 65 61 58 55 51 48 46 43 42 43 44 44 43 45 46 48 49 50 51 52 55 58 58 59 60 60 60 60 59 59 60 60 61 62 65 71 77 78 78 80 80 82 84 83 81 80 77 72 69 65 63 62 60 58
60 58 59 61 62 63 65 66 68 68 64 61 63 68 75 79 80 79 75 70 71 75 79 81 80 79 78 77 76 74 70 66 62 58 54 50 48 47 45 44 45 47 47 46 45 46 48 51 52 52 53 56 59 60 60 60 60 60 60 59 58 59 60 61 62 64 67 74 78 78 78 79 81 84 85 84 82 79 75 72 68 65 64 62 61
61 58 60 63 63 65 67 69 70 68 63 64 70 76 80 80 79 77 74 73 74 77 80 83 81 80 79 77 76 74 70 67 62 58 54 50 49 51 51 50 49 48 48 48 48 49 50 52 54 54 55 58 61 61 60 59 59 59 59 59 56 56 58 60 62 63 65 71 76 77 77 77 80 83 86 86 84 81 77 75 71 67 65 64 64
61 59 62 66 65 67 71 71 69 68 68 70 77 82 83 80 78 76 75 77 78 78 81 84 83 81 79 77 76 74 71 67 62 58 55 52 52 54 55 54 52 50 49 49 50 51 52 53 56 57 58 61 62 62 59 57 57 58 57 57 55 54 55 59 61 62 64 68 73 76 76 76 79 82 85 87 86 83 79 77 74 69 67 67 66
63 62 66 68 66 70 73 71 69 72 73 76 82 85 82 79 78 76 75 78 79 80 84 87 85 83 81 78 76 73 71 67 62 58 55 53 54 54 54 54 53 52 52 52 53 54 55 56 57 58 60 61 62 60 57 55 56 57 56 55 54 53 54 56 59 61 63 66 71 74 75 74 77 81 83 85 87 86 82 79 77 72 69 69 67
65 65 68 68 68 72 72 69 71 74 76 81 86 86 80 77 79 78 76 78 80 82 87 90 87 85 82 79 76 73 70 67 63 59 56 55 55 55 55 54 53 53 53 55 57 57 58 60 60 60 62 62 61 59 55 54 55 56 54 52 52 53 53 55 58 60 61 64 68 72 74 74 75 79 82 84 88 89 84 81 79 75 72 71 68
67 68 70 69 69 70 69 70 73 74 78 85 87 84 79 79 81 80 77 79 81 85 90 91 88 85 82 80 77 73 70 67 64 60 58 57 56 56 56 56 55 54 54 55 58 60 62 64 63 63 64 64 62 59 55 53 54 56 53 50 49 50 52 54 56 59 60 64 68 71 74 75 75 78 82 84 88 91 87 83 81 79 75 72 69
71 72 72 70 69 70 72 74 75 74 81 87 86 82 79 79 81 80 78 78 82 88 92 92 89 85 83 82 78 73 69 67 64 62 60 59 59 59 58 58 58 58 58 58 59 61 63 65 65 64 65 64 62 59 56 52 53 55 52 49 48 48 51 53 56 58 61 64 68 71 73 75 76 77 81 84 87 91 90 85 83 81 77 73 71
74 75 74 72 73 75 77 76 74 76 84 88 86 83 79 78 81 81 78 79 84 91 95 94 90 86 84 83 79 74 70 67 66 64 62 61 63 63 62 61 61 62 62 63 62 62 63 64 65 64 64 63 61 59 55 51 51 53 51 47 46 47 49 52 55 58 61 65 68 70 73 76 77 77 81 84 87 91 92 88 85 83 79 76 74
77 78 77 76 78 80 78 74 75 81 86 87 86 85 80 79 81 82 80 81 86 93 97 96 93 89 87 85 81 77 72 69 67 66 64 63 65 66 66 66 66 66 66 66 65 64 64 64 64 63 62 61 59 57 54 50 49 51 49 45 45 46 47 50 54 58 61 65 68 70 72 75 77 77 80 84 86 90 92 91 88 86 82 79 76
80 80 80 80 81 80 76 75 79 84 86 86 86 85 82 82 85 85 83 84 89 94 97 96 94 91 89 87 83 79 74 70 69 67 66 66 68 69 69 70 70 70 70 69 68 67 66 65 63 61 60 58 55 52 50 47 47 48 47 44 43 45 46 49 53 56 61 65 68 71 73 76 79 78 79 83 86 89 93 94 91 88 84 81 78
81 81 80 79 79 76 73 77 83 85 85 85 85 85 84 85 88 88 86 88 91 94 97 97 95 93 92 88 84 81 77 73 71 71 70 70 72 72 72 73 74 73 72 70 69 67 65 63 61 59 57 56 52 48 46 45 45 45 44 42 41 42 44 47 50 54 59 64 68 72 74 77 80 80 78 81 86 89 93 95 94 90 86 83 80
80 77 75 74 73 72 74 81 85 85 85 85 87 88 88 89 90 90 89 91 94 96 98 99 97 96 94 90 86 83 79 75 73 73 73 74 76 76 75 76 76 75 72 69 67 65 63 60 58 56 54 52 49 45 43 42 42 42 41 39 38 38 40 44 48 52 57 62 67 71 75 78 81 81 77 79 85 90 92 94 94 92 88 84 82
76 74 72 72 72 73 77 84 86 85 86 87 89 90 90 91 92 91 92 95 97 98 101 101 99 98 95 90 87 83 80 77 76 75 75 77 78 78 78 78 78 75 72 69 66 64 61 58 56 54 51 48 44 41 40 39 40 39 38 35 34 34 37 41 45 49 54 59 64 70 74 77 80 81 77 77 84 90 91 92 94 93 90 87 84
78 77 75 74 74 75 80 85 85 85 87 89 90 91 91 93 94 95 96 97 98 100 102 100 99 98 95 91 87 83 81 80 79 78 78 79 80 80 80 79 77 74 71 68 65 62 59 55 52 51 49 45 41 38 37 36 37 36 34 32 30 31 34 39 43 47 51 56 62 68 72 74 78 80 78 77 83 88 89 92 95 95 92 89 86
77 75 74 74 74 77 82 86 86 87 88 89 91 92 93 95 96 98 99 98 99 101 101 99 97 97 94 90 87 85 83 82 82 81 80 81 82 82 80 78 75 72 70 67 64 60 56 52 49 48 46 42 38 35 34 34 33 32 30 28 27 29 32 36 40 43 48 53 59 64 68 71 75 79 79 78 83 87 90 93 95 95 93 91 87
68 67 70 73 76 81 86 88 88 89 89 90 92 93 95 96 97 97 98 99 102 103 101 98 96 94 91 88 86 85 83 83 84 83 82 83 83 82 80 76 73 70 67 64 62 58 53 49 46 44 42 39 36 32 31 30 29 27 25 24 24 27 30 33 36 40 45 51 56 59 63 67 72 76 79 80 83 87 91 93 94 94 94 92 87
71 75 79 81 83 87 90 91 90 89 89 92 94 95 95 96 96 96 98 101 104 104 102 99 96 92 89 86 84 84 84 84 85 86 85 84 82 81 78 74 70 67 64 62 59 55 51 46 43 40 38 37 34 29 27 26 25 23 21 21 22 24 27 30 33 36 42 48 52 54 58 63 68 73 78 80 84 88 91 93 93 94 94 93 88
87 91 91 89 89 91 92 91 89 89 92 95 96 95 96 96 96 98 100 102 104 104 101 98 95 92 88 85 83 83 84 85 87 88 87 84 81 78 75 71 67 64 61 59 56 52 49 44 39 35 34 33 30 26 23 23 22 20 20 19 20 21 24 27 30 34 39 44 47 50 54 59 63 70 76 81 85 89 92 93 94 94 95 93 89
94 94 92 91 92 93 94 92 90 91 94 95 95 95 96 97 98 100 102 103 103 101 99 96 94 92 89 86 85 85 86 87 88 88 86 82 79 75 72 68 64 60 58 56 52 49 46 42 36 31 30 29 26 22 21 21 20 20 20 20 20 20 22 24 27 31 36 40 43 47 51 53 57 65 74 81 85 90 93 94 94 95 96 95 92
94 94 94 94 94 95 95 94 92 93 95 95 95 96 97 99 100 101 102 102 101 98 96 93 91 89 89 88 88 87 88 89 89 86 83 80 77 73 69 65 61 57 55 52 49 46 44 40 33 28 27 26 22 20 20 21 21 20 20 20 19 18 19 21 23 27 31 35 40 44 47 49 53 62 72 80 86 91 93 94 95 96 97 97 95
94 95 96 96 96 95 94 92 93 95 96 96 96 97 99 101 102 102 102 101 99 97 94 91 89 88 89 90 90 89 89 89 88 85 82 79 75 71 66 62 58 54 52 49 45 42 40 36 31 27 25 23 20 20 22 22 21 20 19 18 17 15 15 16 18 22 26 30 36 40 43 46 52 60 69 78 86 91 94 95 95 95 97 98 97
96 96 96 96 94 91 90 91 94 96 97 97 98 99 100 102 102 102 102 100 97 95 93 90 89 90 91 92 92 91 90 88 86 84 81 77 72 68 63 58 54 51 48 45 42 39 36 33 29 25 23 21 20 22 24 24 22 21 19 17 15 13 12 12 14 17 21 25 31 36 39 43 49 57 65 76 84 90 93 94 93 94 97 98 97
94 94 93 92 89 88 89 92 96 97 98 98 99 100 101 102 102 102 100 98 96 93 91 91 92 93 93 93 92 91 89 86 85 83 79 74 70 65 60 55 50 47 45 43 39 36 32 29 26 23 21 20 21 25 27 25 23 21 19 16 13 12 11 11 11 13 16 21 27 33 36 40 46 53 61 72 82 88 92 93 93 94 97 99 98
91 91 90 89 88 89 92 96 99 100 100 100 101 102 102 102 101 99 97 95 94 92 92 94 97 97 95 94 93 90 87 84 83 81 76 71 66 62 57 52 47 44 42 40 36 33 30 26 23 22 20 20 24 28 28 27 25 23 20 16 13 12 11 10 9 11 13 17 24 30 34 38 44 51 59 68 78 86 91 92 93 95 97 98 98
90 89 89 89 89 92 97 100 101 101 101 101 103 104 104 101 99 96 95 94 93 93 95 98 100 99 97 94 91 87 84 83 81 77 72 67 62 58 53 49 45 42 40 37 33 29 27 25 22 21 20 22 27 30 30 29 27 25 21 17 15 14 12 10 9 10 12 15 21 27 32 36 43 50 57 66 76 85 91 93 93 94 95 96 97
90 90 90 91 92 95 98 100 101 101 102 103 104 104 102 99 96 94 93 94 94 96 99 100 101 99 97 93 89 85 84 83 80 74 68 63 58 55 51 46 42 39 37 35 31 27 25 24 22 20 20 24 30 33 32 31 29 27 24 20 17 16 14 12 10 11 12 14 19 26 31 35 41 48 55 64 74 83 89 92 93 92 92 92 94
92 93 92 93 93 95 97 99 101 102 103 103 102 100 97 94 92 92 93 95 97 99 101 101 101 100 97 93 89 86 84 82 77 69 63 59 56 53 49 45 40 36 34 33 30 26 24 23 23 21 22 27 34 35 35 34 32 29 26 22 19 18 16 14 13 12 12 14 19 24 30 36 42 47 54 62 72 80 85 88 89 89 89 89 91
93 93 93 93 93 96 98 100 102 103 104 103 100 96 92 90 91 93 96 97 99 100 101 102 102 100 96 92 89 86 84 79 72 65 60 56 53 51 48 44 39 34 33 31 28 25 24 24 23 22 23 30 36 37 37 37 35 31 28 24 21 19 18 16 15 14 13 14 19 24 29 35 42 48 54 61 69 77 82 84 85 86 87 88 88
92 93 93 94 96 99 101 102 104 105 104 101 96 91 88 89 92 96 98 99 100 101 101 101 100 97 94 91 88 86 82 76 68 61 56 54 51 49 47 44 38 33 31 30 27 24 24 24 24 24 25 32 38 40 40 40 38 34 30 26 23 22 21 19 18 16 15 16 19 23 29 35 41 48 54 61 67 74 78 81 82 83 85 86 87
94 95 96 98 100 101 103 104 105 104 101 96 92 89 89 92 95 97 99 100 101 101 101 100 98 96 93 90 87 83 78 71 65 59 55 51 49 47 45 43 37 32 30 29 27 24 23 25 25 25 26 33 40 42 42 43 41 36 33 29 26 25 24 23 22 20 19 18 20 23 27 33 40 47 53 60 67 72 75 77 78 79 81 84 86
97 98 100 101 102 103 104 104 101 96 92 91 91 92 93 95 97 99 99 100 100 100 100 99 97 95 92 88 84 78 72 66 62 59 54 50 46 44 43 41 37 32 29 28 26 24 24 26 27 26 28 34 41 44 45 45 43 39 36 32 29 28 27 26 26 24 23 22 22 23 26 31 37 45 53 60 67 71 72 73 74 75 78 81 83
99 100 101 102 102 102 100 96 90 87 89 92 94 95 97 98 99 99 100 100 100 99 98 97 96 93 90 85 79 73 67 62 59 57 53 48 44 42 41 38 36 34 30 27 26 25 24 26 28 28 29 34 42 46 47 48 46 42 39 36 33 31 30 30 29 28 28 26 25 25 28 31 35 41 50 60 67 71 72 72 73 73 75 78 80
101 101 100 99 97 94 91 87 85 88 93 96 97 98 99 100 100 99 100 99 98 97 97 96 94 90 86 80 73 67 63 60 57 54 51 46 42 40 39 37 35 34 31 28 26 25 25 27 30 30 30 35 43 48 50 50 49 45 42 40 37 34 32 33 33 32 32 31 29 28 30 33 35 38 46 56 66 72 75 74 74 75 76 78 79
100 98 94 92 89 87 85 86 89 94 98 98 99 99 100 100 100 99 98 97 97 96 95 93 90 86 80 74 68 64 61 58 55 51 48 44 40 38 38 37 35 33 32 30 27 26 26 28 31 33 33 35 43 50 53 53 52 49 46 44 41 38 36 36 37 36 36 35 34 32 33 36 37 37 41 49 60 70 77 79 79 78 78 79 81
94 92 88 87 86 86 88 91 95 98 100 100 100 100 100 100 99 97 96 96 95 94 92 89 85 79 74 68 65 61 58 54 50 47 45 43 40 37 36 37 36 34 32 31 30 28 27 29 32 34 35 37 43 51 55 56 55 53 51 49 46 42 39 40 40 40 39 39 38 37 38 40 40 40 41 45 52 60 70 78 82 82 80 80 80
90 89 89 88 87 89 92 95 98 99 100 100 100 100 99 97 96 95 95 94 93 90 87 84 79 73 68 64 61 58 53 49 46 43 42 41 40 37 35 36 36 35 33 32 32 31 30 29 31 35 37 39 43 51 57 59 59 57 55 53 50 46 44 43 43 44 43 43 43 42 42 43 45 45 46 48 51 55 60 68 75 80 81 79 78
91 92 93 93 93 94 97 99 100 100 100 100 99 98 96 94 94 94 93 91 89 85 82 78 73 67 63 60 57 54 50 46 42 40 39 39 39 38 36 35 36 36 36 34 33 33 32 32 32 35 39 41 43 50 58 62 62 61 59 58 55 51 49 47 47 47 47 47 47 47 46 47 48 49 50 52 55 57 59 61 66 70 74 75 75
95 96 97 98 98 99 100 100 101 100 99 98 97 96 95 95 94 93 90 87 83 79 75 72 68 63 58 54 51 49 47 44 41 39 39 38 38 38 37 36 36 37 37 36 35 34 34 34 34 36 39 42 44 49 57 63 66 65 64 62 60 56 54 53 51 50 51 51 51 51 51 50 51 52 53 54 56 59 61 62 64 66 68 71 73
99 99 100 101 102 102 101 101 100 99 97 96 95 95 94 94 92 88 85 80 76 71 68 66 65 61 56 50 46 45 45 44 42 40 40 39 38 38 38 38 37 37 38 38 38 36 35 36 36 37 39 43 45 48 54 62 68 69 67 67 65 62 59 58 56 54 54 54 54 54 55 54 54 54 56 57 58 60 63 65 66 66 67 70 73
101 101 102 103 103 102 101 100 99 97 95 94 94 94 92 89 85 82 78 73 68 64 62 61 60 58 53 48 43 42 43 43 43 42 41 40 40 40 40 39 39 39 39 39 40 40 38 37 37 38 39 43 46 49 53 60 68 72 72 71 70 67 64 62 61 59 58 57 57 57 58 58 58 57 57 58 59 61 62 65 68 69 69 70 72
101 101 101 101 101 101 100 99 97 96 94 92 91 89 85 82 78 74 70 66 62 59 57 56 55 54 51 47 44 43 43 42 42 42 42 41 40 40 40 40 39 40 40 40 40 41 41 39 38 38 39 42 46 50 53 57 65 72 75 75 74 72 70 67 65 64 63 61 60 60 60 60 61 61 61 60 60 61 62 64 67 70 71 71 71
100 99 99 98 98 97 96 95 94 92 90 87 84 81 77 74 71 67 63 60 57 54 51 50 50 51 50 47 45 44 43 42 41 40 40 39 39 39 39 39 38 38 38 39 39 39 40 39 38 38 39 40 43 48 53 56 62 69 76 78 78 76 75 73 70 69 68 66 64 63 63 63 63 64 64 63 62 62 63 63 65 68 72 73 74
98 97 96 95 95 94 91 89 86 84 81 78 75 72 69 66 63 60 57 55 52 49 47 45 46 48 49 48 46 45 43 40 39 38 37 36 36 36 36 36 35 35 35 35 36 36 37 37 37 37 38 39 41 45 51 55 59 65 73 79 81 80 79 78 76 74 72 71 70 68 67 66 65 66 67 67 66 65 65 64 64 66 69 73 75
94 94 93 91 89 85 82 78 75 73 71 69 67 65 62 59 56 54 52 49 47 45 44 43 44 46 47 47 45 43 40 38 37 36 35 34 33 33 32 32 32 32 32 32 33 33 34 34 35 36 36 37 39 42 47 53 57 62 68 76 82 84 83 82 81 79 77 76 75 73 71 70 69 69 69 70 70 69 68 67 66 66 67 70 73
87 86 84 81 77 73 70 68 66 65 64 62 60 58 55 53 51 49 47 46 44 43 43 42 42 43 43 42 40 39 37 35 34 33 32 30 29 28 28 28 28 28 28 29 29 30 31 32 33 34 35 35 36 39 43 48 55 59 64 70 78 84 86 86 86 85 83 81 79 78 76 75 73 72 72 73 73 73 72 71 70 69 69 70 71
76 74 72 69 66 64 63 62 61 60 59 56 54 52 49 47 46 45 45 45 44 43 41 40 39 38 37 36 36 35 33 31 30 28 27 26 25 25 25 25 25 26 26 27 27 28 29 29 30 31 32 33 34 36 39 43 50 56 61 65 72 79 86 89 89 89 88 86 84 82 81 79 78 77 76 76 76 77 76 75 74 73 72 72 73
66 64 63 61 59 58 58 56 55 55 55 52 48 46 45 44 44 43 43 43 43 41 40 38 36 34 33 32 31 30 30 29 27 26 25 24 24 24 24 24 25 26 26 27 27 28 28 29 30 30 29 30 32 35 37 39 43 49 56 61 66 72 80 87 91 92 92 91 90 88 86 84 83 82 81 80 79 80 80 80 79 78 76 76 76
Wind_Direction
314 317 316 317 320 322 324 326 326 326 328 328 326 321 319 325 329 330 330 329 330 332 334 334 335 335 335 334 333 332 329 325 320 314 309 303 299 295 291 286 281 276 271 269 267 265 264 264 264 264 264 264 263 263 263 263 263 262 261 259 256 249 242 237 235 237 236 231 227 225 224 223 223 223 223 223 222 222 222 223 223 223 223 224 223
312 313 314 316 318 320 322 323 323 324 326 328 327 324 324 326 328 328 328 327 329 332 334 334 334 334 334 334 332 332 330 327 322 317 311 305 301 298 294 289 285 281 277 274 271 270 269 267 267 266 266 266 266 265 265 265 266 265 262 261 259 254 246 239 235 235 236 233 229 226 224 222 221 222 223 224 224 224 224 225 224 223 224 224 222
309 311 313 315 317 319 320 321 321 322 325 327 327 327 327 326 326 328 327 326 329 333 334 333 333 334 334 333 331 330 329 327 323 318 313 307 302 299 295 291 288 285 282 279 277 274 272 272 271 270 270 270 269 268 268 267 267 267 265 263 261 256 249 242 236 234 235 235 231 227 225 221 220 221 222 223 225 225 225 225 225 224 224 224 223
308 310 312 314 316 317 318 319 319 320 322 324 324 325 326 326 326 327 327 326 328 333 334 332 331 332 332 331 330 329 328 326 323 320 314 308 302 300 296 292 290 289 286 283 282 278 276 276 276 274 274 273 272 271 270 270 269 268 267 264 260 256 251 244 238 234 233 234 233 229 226 222 220 220 220 222 224 225 225 226 224 223 223 224 224
308 308 311 313 314 316 317 317 318 318 319 322 322 322 324 325 326 326 326 325 327 331 333 332 331 331 331 330 330 329 327 325 322 320 315 308 303 301 298 294 292 292 291 289 287 284 282 281 281 278 277 277 276 274 273 272 271 270 269 266 260 254 251 246 240 234 232 233 233 231 227 223 220 220 219 220 223 223 224 225 224 222 222 223 223
307 306 308 312 313 314 315 316 318 319 318 319 321 322 323 324 325 326 326 325 327 329 331 331 330 330 329 329 328 328 327 325 322 319 315 309 305 303 302 300 296 295 294 292 290 288 286 286 285 284 283 281 279 277 276 275 274 271 269 266 261 253 249 245 241 235 231 231 231 231 228 224 221 220 218 218 221 222 222 223 223 222 221 221 222
307 305 306 311 312 313 315 315 317 319 319 319 320 321 322 323 325 326 325 326 326 327 329 330 329 329 328 327 327 327 327 325 321 319 316 311 307 304 304 303 300 298 296 294 293 292 291 290 290 289 287 284 281 279 278 277 275 272 269 266 261 254 247 243 240 235 231 229 229 229 228 225 221 220 218 217 218 220 220 221 222 221 219 219 221
308 306 306 310 311 312 313 313 315 318 319 320 320 320 321 323 325 325 324 326 326 325 327 328 328 328 327 326 326 326 326 324 321 319 318 315 312 309 306 304 301 300 300 298 298 297 296 294 293 292 290 286 283 281 279 279 277 274 270 266 261 254 247 242 239 235 231 228 227 227 227 225 222 220 218 215 216 219 219 219 221 221 218 218 220
307 305 306 308 310 311 311 311 314 316 318 320 320 319 320 322 324 323 323 325 326 325 326 326 326 326 326 325 326 325 324 323 321 319 318 317 315 312 308 304 301 300 300 301 301 301 301 300 298 297 295 291 288 285 283 281 279 276 272 267 260 253 247 242 238 234 230 227 226 224 225 225 222 220 218 215 214 217 218 218 219 220 218 217 219
306 305 306 307 308 308 308 310 312 314 317 319 319 319 318 319 322 322 321 323 324 325 326 325 324 324 324 325 325 324 323 322 320 318 317 315 313 311 308 305 302 301 301 302 303 304 304 304 303 301 298 295 292 289 287 285 281 278 274 269 261 253 247 242 237 233 229 226 224 223 222 224 222 220 218 215 213 215 217 216 217 219 217 216 218
305 304 306 306 306 307 307 308 309 311 315 317 318 317 316 317 320 321 321 321 322 324 325 324 323 323 324 325 325 324 322 321 318 317 315 314 312 310 308 307 306 305 305 304 305 305 305 305 304 303 299 296 294 291 288 285 281 277 274 269 262 253 245 240 236 231 228 225 223 222 220 221 222 219 217 215 213 214 215 215 216 218 217 215 217
303 303 304 305 304 305 307 307 307 310 315 316 316 316 315 316 319 320 320 319 320 323 325 324 323 323 324 325 325 324 322 320 318 316 314 314 312 311 310 309 309 309 307 307 306 305 306 306 305 303 299 296 294 291 288 284 279 276 272 266 260 252 243 238 234 230 228 225 223 221 219 220 221 219 216 214 213 213 214 214 215 217 216 215 216
301 302 303 303 303 304 305 305 307 312 314 314 315 315 314 316 319 320 318 317 318 322 323 323 323 323 323 324 325 324 322 319 317 314 313 313 313 311 312 311 311 310 309 309 308 308 308 308 307 303 299 296 293 290 287 282 277 274 270 265 258 250 242 236 233 229 227 225 223 221 219 219 220 219 215 213 212 212 213 214 215 216 216 215 215
300 300 301 301 301 302 304 306 310 313 314 314 314 314 313 315 317 319 317 316 317 320 322 322 322 322 323 324 324 323 320 318 315 313 313 314 313 312 313 313 312 312 311 311 311 311 310 310 307 304 299 295 292 288 284 280 275 271 268 263 256 249 242 236 232 229 227 225 223 221 219 218 219 219 215 212 211 211 212 213 214 215 215 215 215
299 298 299 300 300 301 304 308 311 313 313 314 314 313 312 313 316 317 316 315 317 320 321 321 321 321 322 323 324 322 319 317 316 314 314 315 314 313 314 314 313 312 312 312 311 310 310 309 307 304 300 296 291 286 281 276 272 268 265 261 254 248 242 236 232 229 227 225 223 221 219 218 218 219 215 210 210 210 211 212 213 214 214 214 215
297 298 299 300 300 301 304 309 311 312 312 313 313 312 312 313 314 315 315 316 317 319 320 321 321 321 321 322 322 320 318 317 316 315 315 315 315 315 315 314 313 312 312 311 310 310 311 310 307 304 300 296 291 285 280 276 272 268 263 259 254 248 242 236 233 230 227 226 224 222 220 217 217 218 215 210 208 209 210 210 212 213 214 214 214
297 299 300 299 298 300 305 309 310 310 310 311 312 312 312 312 313 314 315 316 317 318 319 320 320 320 321 321 321 319 317 317 316 315 315 315 315 315 316 315 314 313 313 312 311 311 311 310 307 303 299 294 288 283 280 276 272 268 263 259 254 247 241 237 233 230 228 226 225 223 221 218 216 217 215 209 208 209 209 209 210 212 214 214 214
297 298 298 297 297 300 305 308 308 308 309 310 311 311 312 313 314 314 315 316 316 317 318 319 319 319 319 319 319 317 316 316 315 315 315 315 315 316 316 315 315 314 314 313 311 310 310 309 306 302 298 292 286 281 278 274 270 267 263 259 253 246 241 237 234 231 228 227 226 225 222 218 216 216 214 210 208 209 209 209 210 211 213 214 214
296 296 296 295 295 300 305 307 306 306 307 309 310 311 312 313 313 314 314 314 314 315 317 317 318 318 318 318 317 316 316 315 315 315 315 315 316 316 316 315 314 314 313 312 310 309 309 308 305 300 295 290 284 279 277 274 268 264 260 256 251 246 242 238 235 232 229 227 226 225 223 219 216 215 213 210 208 208 208 209 209 210 211 213 213
295 296 294 292 294 299 304 304 303 304 307 309 310 311 311 312 312 312 313 312 313 314 316 317 317 317 317 317 316 316 315 315 315 315 316 316 316 316 315 314 314 313 312 310 308 308 308 307 304 299 293 287 281 277 276 273 267 260 253 249 246 244 242 239 235 233 231 229 227 225 223 220 216 214 213 210 208 207 208 209 209 208 210 213 213
292 294 293 291 293 298 302 302 303 305 308 310 311 310 310 311 311 312 312 312 313 314 316 316 317 316 315 315 315 314 315 315 315 316 316 316 317 316 314 313 313 312 310 308 307 307 307 306 302 296 290 284 280 277 274 268 260 250 242 239 239 239 241 240 236 234 234 232 229 226 224 220 216 213 212 209 208 208 208 208 208 208 209 212 212
290 291 291 291 294 298 301 302 303 305 308 309 309 309 309 310 311 311 311 312 313 315 315 315 315 314 314 314 314 314 314 316 317 317 317 317 316 315 313 312 311 310 308 307 307 307 306 304 300 293 285 278 276 274 268 258 247 236 229 227 230 233 237 239 237 235 235 234 230 227 224 220 215 213 211 209 207 207 208 207 207 207 209 211 211
289 289 290 292 295 299 301 302 303 305 307 308 307 308 309 309 310 311 312 312 313 314 314 313 313 313 313 314 315 315 316 317 317 317 316 316 315 314 312 311 310 309 307 306 306 306 305 302 299 292 280 273 270 265 253 241 231 224 220 219 221 226 232 237 237 236 236 235 231 228 224 219 214 211 210 208 207 207 207 207 207 206 208 210 211
288 288 290 293 297 300 301 302 303 304 306 306 306 307 307 308 310 311 312 312 313 313 312 312 312 313 314 315 316 316 317 317 317 316 315 315 314 313 311 310 309 308 306 306 306 306 303 301 298 289 276 268 263 250 233 223 217 216 216 216 217 224 231 236 239 240 238 235 232 228 224 219 214 210 208 207 206 206 206 206 206 206 207 209 212
288 289 292 295 298 300 301 302 302 304 304 305 305 306 307 309 310 311 311 311 311 311 311 312 312 313 314 316 316 316 317 318 317 316 315 314 313 312 311 310 309 307 306 305 306 305 302 299 296 286 273 264 251 231 216 211 210 210 210 212 215 223 230 235 241 243 241 236 232 227 223 219 214 209 206 206 206 206 206 206 206 206 206 209 212
289 291 293 296 298 300 300 300 301 302 303 304 305 306 308 309 310 310 309 310 310 310 311 312 313 314 315 316 316 316 317 317 316 315 315 314 313 311 310 309 308 307 305 305 305 303 300 297 292 281 269 257 238 216 205 204 203 203 205 209 214 222 229 234 243 247 243 236 230 225 221 219 216 210 206 205 205 205 206 206 206 206 207 209 212
290 292 294 297 298 298 297 298 299 301 303 304 305 307 308 309 309 309 309 309 309 310 311 311 312 314 314 315 315 315 316 316 315 315 313 312 311 310 309 309 308 306 304 304 304 302 297 293 287 276 264 248 226 209 201 199 199 198 200 205 212 221 229 233 243 251 246 237 229 223 218 216 214 210 206 204 204 204 205 206 207 207 207 209 212
289 291 293 295 295 296 297 298 300 302 303 304 305 307 308 308 307 307 307 307 308 309 309 310 312 313 314 314 314 315 315 314 314 314 312 311 310 309 309 308 307 305 303 302 302 299 294 288 280 270 258 237 216 205 199 197 195 194 195 200 209 218 226 230 242 254 251 238 228 220 215 212 211 208 205 203 202 204 205 206 207 208 208 210 211
287 289 291 293 295 296 298 299 301 302 303 304 305 306 306 306 306 305 306 307 307 308 309 311 312 313 314 314 314 314 314 314 314 313 312 310 309 308 308 307 306 304 302 300 299 295 290 283 274 263 249 227 209 201 197 195 192 191 191 198 207 213 218 225 238 254 254 240 226 218 212 208 207 207 204 201 201 202 204 206 208 209 210 210 212
286 289 291 293 296 297 298 299 300 301 302 303 304 305 305 305 304 305 306 307 308 308 309 310 311 312 313 314 314 314 314 314 313 312 311 310 308 307 307 306 304 302 300 298 296 291 285 277 267 255 240 219 205 199 196 192 190 190 192 198 206 209 211 217 231 249 252 236 222 216 211 205 203 205 204 201 199 201 204 206 208 210 211 212 213
287 290 293 294 296 296 296 297 298 299 300 301 302 303 303 303 304 305 306 307 308 309 309 310 310 310 311 312 313 313 314 314 313 311 310 308 307 306 305 304 303 301 297 294 291 286 278 270 260 250 233 214 203 199 195 191 189 191 194 198 204 207 209 213 222 238 243 229 216 213 210 205 201 202 203 201 199 200 203 206 208 210 212 213 214
289 292 293 294 294 294 295 296 297 298 299 300 301 301 302 302 303 305 305 306 307 308 308 309 309 309 311 311 312 313 313 313 311 310 309 307 306 305 304 302 301 299 294 290 286 279 271 263 253 244 229 212 203 199 195 191 190 192 195 198 201 206 209 211 215 226 235 224 211 208 208 206 202 200 200 201 200 200 203 206 208 211 212 213 215
289 291 292 292 293 294 295 296 297 298 299 299 300 301 302 302 303 304 305 305 306 307 307 308 308 309 310 310 311 312 312 311 309 308 307 306 304 303 302 300 299 296 291 286 281 273 264 256 248 240 227 212 204 200 196 192 191 193 196 197 199 202 207 210 211 217 225 218 207 203 205 206 204 201 199 200 200 201 203 206 209 211 213 214 215
288 289 290 291 292 293 294 295 296 297 298 299 300 301 302 302 302 304 304 305 306 307 307 307 307 308 308 309 310 311 310 309 308 307 306 304 302 300 299 297 296 293 287 283 277 268 258 250 244 238 227 213 205 201 197 193 192 194 197 198 198 200 204 207 208 211 217 212 201 198 202 204 204 202 200 199 199 200 202 205 208 211 214 215 215
287 287 289 290 291 292 293 295 296 297 298 300 301 301 301 301 302 303 304 305 306 306 306 306 306 307 308 309 310 310 308 307 307 306 305 303 300 298 296 294 293 290 284 279 274 265 253 245 241 236 227 215 207 202 198 195 193 195 197 197 197 198 202 205 205 207 210 207 197 194 198 201 202 203 202 200 199 199 201 203 206 210 213 215 216
286 287 288 290 291 293 294 294 295 296 298 300 300 300 301 301 302 303 304 305 305 306 305 305 306 306 307 308 308 308 307 307 306 304 303 300 297 295 293 291 289 286 281 276 270 263 252 242 237 234 227 217 208 203 200 196 195 196 197 196 196 198 202 204 203 203 206 204 197 194 195 195 197 201 202 202 201 200 200 201 204 208 212 215 217
285 287 289 290 292 293 293 293 293 296 298 299 299 300 301 302 302 303 304 304 305 305 305 305 305 306 307 307 307 307 307 306 305 302 300 297 294 292 290 288 285 282 279 275 269 262 252 242 235 232 227 218 210 205 201 198 197 197 198 197 197 198 201 203 202 203 204 202 198 195 193 190 191 197 201 203 203 202 201 201 204 207 211 214 216
287 288 290 291 292 292 292 291 293 295 297 298 299 300 301 301 302 303 304 304 304 304 304 304 305 305 306 306 306 306 306 304 302 300 297 295 292 288 286 285 282 279 276 273 267 260 252 243 235 230 227 220 212 207 204 201 200 199 199 199 199 199 200 202 203 204 204 202 199 197 195 191 190 193 198 201 204 205 205 205 206 208 211 215 217
289 290 291 291 292 292 291 292 293 295 297 298 299 300 300 301 302 303 303 303 303 303 303 304 304 304 304 305 305 304 303 301 299 297 296 294 291 287 283 281 279 277 274 271 267 261 253 244 236 230 226 221 214 209 206 204 203 201 201 201 201 200 199 201 204 205 205 204 202 200 199 197 195 194 195 198 201 205 208 210 211 212 213 216 219
290 291 292 292 292 292 292 293 294 295 296 298 299 299 300 301 301 302 303 303 303 303 302 302 302 303 303 303 302 301 300 299 297 296 294 292 290 287 282 278 277 275 272 269 266 263 256 247 238 232 227 223 216 211 209 207 205 204 203 203 203 201 200 200 203 205 206 206 204 203 203 202 200 198 197 196 197 200 204 209 212 214 216 217 219
291 291 292 293 293 293 293 294 295 296 297 298 299 299 300 301 301 302 302 302 302 301 301 301 301 301 301 301 300 299 298 297 296 295 293 291 289 286 282 277 274 273 271 268 265 263 259 252 242 233 229 225 220 214 211 209 207 206 205 204 205 203 201 201 203 205 206 207 206 206 205 205 204 202 201 200 199 199 200 204 208 211 214 215 217
291 292 293 294 293 293 294 295 296 297 298 298 299 299 300 301 301 302 301 300 300 300 299 299 299 299 299 299 299 298 297 296 295 294 293 291 288 285 282 278 273 271 270 269 266 263 259 255 247 237 229 226 223 218 213 211 210 208 207 206 206 206 204 202 202 205 207 208 208 209 208 208 207 206 205 205 204 203 203 203 205 207 209 212 214
291 292 293 293 293 294 295 295 296 297 297 298 298 299 300 300 300 300 299 298 298 298 297 297 297 297 297 297 297 296 295 295 295 294 292 290 288 285 282 279 275 272 270 269 268 265 261 257 251 242 232 226 224 222 217 214 212 210 209 208 207 207 206 204 203 204 207 208 210 211 211 211 211 210 209 209 209 208 208 207 207 208 209 211 213
291 292 292 293 293 294 295 295 296 296 296 297 297 298 299 298 298 297 297 296 296 296 296 295 295 295 296 296 296 294 294 294 294 292 291 289 287 284 282 279 277 274 271 269 268 267 265 260 254 247 238 229 224 223 221 217 215 213 211 210 209 209 208 207 205 205 206 208 210 211 212 213 213 213 213 212 211 211 211 211 211 211 212 213 215
291 291 291 292 292 293 294 294 295 295 295 296 296 297 297 296 296 295 295 294 295 295 294 294 294 294 295 297 297 295 294 293 292 291 289 288 286 284 281 279 276 274 272 269 267 266 265 263 257 250 243 235 228 224 222 220 217 215 214 212 211 210 210 209 208 207 207 208 209 211 212 214 214 215 215 215 214 213 213 213 213 213 214 215 216
289 289 290 290 291 292 293 293 293 294 294 295 295 295 295 294 294 294 294 294 294 294 294 293 294 294 295 297 297 296 294 293 291 290 288 287 285 283 281 279 277 274 272 270 268 266 264 263 259 253 246 240 233 228 224 222 220 218 216 215 214 212 211 211 211 209 208 208 209 211 212 214 215 215 215 216 216 215 215 215 215 215 215 216 216
288 289 289 290 291 292 292 292 292 293 293 293 293 293 293 293 292 292 292 292 293 293 293 292 293 294 295 296 296 295 294 293 291 290 288 286 284 282 281 279 278 276 273 271 269 267 264 262 260 255 249 243 238 232 228 225 223 221 219 217 216 215 214 213 213 212 211 210 210 211 212 213 215 215 216 216 217 217 217 217 216 217 217 217 217
288 288 289 290 291 291 291 292 292 292 292 292 292 291 291 291 291 291 291 291 291 292 292 293 293 293 293 294 294 294 293 292 291 289 287 285 282 280 279 278 277 276 275 272 270 268 266 263 260 257 253 248 242 237 232 228 226 224 222 220 219 217 216 215 215 214 214 213 212 212 212 213 214 215 216 217 218 219 220 220 219 218 218 218 218
288 288 289 290 290 291 291 291 291 291 290 290 290 290 290 290 290 290 291 291 291 292 293 294 293 292 291 291 292 292 291 290 289 286 284 282 280 279 278 277 277 277 276 275 273 271 269 266 262 259 255 252 247 241 235 231 229 227 225 223 222 220 219 218 217 216 216 215 214 214 213 213 214 215 216 217 218 219 220 221 222 221 220 220 220
288 289 289 290 290 291 291 291 290 290 289 288 288 288 288 289 289 290 291 292 293 293 294 293 292 290 290 291 292 291 290 288 286 283 281 280 279 278 278 278 278 278 277 276 275 273 271 269 266 262 258 255 252 247 240 234 230 229 228 226 225 223 221 220 220 219 218 218 217 216 215 215 215 216 216 217 218 219 220 221 222 223 223 222 221
288 289 289 289 289 289 289 288 288 287 287 287 287 288 289 290 291 292 292 292 293 294 295 294 292 291 291 291 290 290 289 287 285 283 282 281 280 281 281 281 281 280 279 277 276 274 272 270 268 265 261 258 256 252 247 239 234 231 229 228 227 226 224 223 222 221 220 220 219 219 218 217 217 217 217 217 218 218 219 220 222 223 224 224 224
Height
10920 10919 10916 10912 10908 10903 10900 10897 10895 10892 10890 10888 10883 10878 10874 10870 10866 10862 10859 10856 10852 10847 10841 10835 10831 10826 10821 10816 10810 10805 10800 10795 10791 10787 10783 10781 10779 10777 10776 10775 10773 10774 10775 10775 10773 10773 10771 10770 10771 10771 10769 10767 10765 10764 10764 10763 10763 10763 10765 10767 10768 10771 10774 10777 10778 10774 10775 10782 10788 10791 10798 10806 10812 10817 10821 10824 10826 10830 10834 10837 10840 10845 10848 10852 10856
10916 10915 10911 10907 10903 10899 10896 10894 10891 10888 10885 10882 10877 10873 10869 10865 10860 10856 10852 10849 10845 10840 10834 10828 10824 10819 10814 10809 10804 10799 10795 10789 10784 10780 10777 10774 10772 10770 10769 10767 10765 10766 10767 10767 10765 10764 10762 10761 10761 10761 10759 10756 10754 10753 10753 10752 10751 10751 10753 10755 10756 10758 10761 10764 10767 10766 10764 10768 10775 10780 10786 10794 10801 10805 10810 10814 10817 10821 10827 10830 10833 10838 10842 10846 10851
10910 10909 10906 10901 10898 10894 10891 10888 10885 10883 10880 10877 10872 10867 10864 10860 10855 10851 10846 10841 10837 10831 10826 10820 10816 10812 10808 10804 10800 10795 10790 10785 10779 10775 10771 10768 10766 10764 10762 10760 10758 10758 10758 10758 10756 10755 10753 10752 10751 10751 10749 10745 10743 10742 10741 10740 10740 10740 10741 10742 10744 10745 10747 10751 10754 10756 10754 10756 10762 10768 10774 10783 10790 10794 10799 10804 10807 10813 10819 10821 10825 10830 10835 10840 10845
10903 10903 10899 10895 10892 10888 10885 10883 10880 10878 10875 10871 10866 10862 10859 10855 10850 10846 10841 10836 10830 10825 10820 10817 10813 10809 10804 10799 10793 10788 10784 10779 10774 10770 10766 10762 10759 10757 10755 10754 10751 10750 10750 10750 10748 10747 10745 10743 10742 10741 10739 10735 10732 10730 10730 10729 10729 10729 10729 10730 10731 10732 10734 10737 10740 10743 10744 10745 10749 10756 10763 10771 10778 10782 10788 10794 10798 10804 10810 10813 10817 10822 10827 10833 10838
10897 10896 10893 10889 10886 10882 10879 10877 10875 10873 10870 10866 10862 10857 10854 10850 10845 10841 10836 10832 10827 10821 10816 10812 10808 10803 10798 10793 10787 10782 10777 10773 10768 10763 10760 10756 10753 10750 10749 10748 10746 10743 10742 10742 10741 10739 10737 10735 10732 10731 10730 10725 10721 10719 10718 10718 10718 10717 10717 10717 10718 10719 10721 10724 10727 10730 10733 10734 10737 10743 10751 10760 10766 10770 10776 10783 10788 10795 10801 10805 10809 10815 10820 10826 10831
10893 10890 10886 10883 10880 10876 10873 10871 10869 10867 10864 10860 10856 10851 10847 10843 10838 10834 10831 10826 10820 10815 10810 10806 10802 10797 10793 10788 10782 10776 10771 10766 10761 10757 10753 10750 10747 10743 10741 10740 10738 10736 10735 10733 10732 10730 10729 10726 10723 10721 10719 10714 10709 10706 10706 10706 10705 10704 10704 10703 10704 10706 10708 10711 10714 10717 10721 10723 10725 10731 10740 10749 10755 10759 10765 10772 10779 10786 10793 10797 10802 10808 10813 10818 10823
10886 10882 10877 10875 10873 10869 10865 10863 10862 10860 10857 10854 10849 10844 10840 10835 10830 10826 10823 10818 10813 10809 10805 10801 10797 10792 10787 10781 10775 10769 10763 10758 10754 10750 10747 10744 10741 10737 10733 10730 10727 10727 10726 10724 10723 10721 10718 10716 10713 10710 10707 10702 10697 10694 10695 10695 10692 10690 10690 10691 10691 10694 10695 10697 10701 10704 10709 10712 10714 10720 10728 10737 10744 10748 10753 10762 10770 10777 10783 10789 10795 10801 10806 10811 10815
10878 10873 10869 10867 10866 10862 10859 10857 10855 10853 10850 10847 10842 10837 10832 10827 10822 10818 10815 10810 10806 10801 10798 10794 10789 10785 10780 10774 10768 10762 10756 10752 10747 10744 10741 10737 10733 10730 10726 10723 10719 10716 10715 10713 10712 10710 10707 10704 10701 10698 10694 10689 10685 10684 10684 10683 10679 10676 10678 10678 10679 10680 10682 10684 10688 10692 10697 10701 10704 10709 10716 10724 10733 10738 10743 10753 10762 10767 10773 10780 10787 10793 10798 10803 10808
10871 10866 10863 10863 10861 10857 10854 10851 10848 10845 10842 10839 10834 10829 10825 10820 10816 10812 10808 10802 10797 10793 10790 10786 10782 10778 10772 10767 10761 10754 10748 10743 10739 10736 10734 10730 10726 10722 10718 10716 10713 10711 10707 10704 10701 10698 10694 10690 10687 10685 10680 10674 10672 10672 10672 10671 10667 10663 10665 10666 10667 10668 10670 10672 10676 10680 10685 10690 10694 10699 10705 10712 10720 10727 10733 10743 10751 10756 10762 10771 10779 10784 10789 10796 10801
10864 10860 10858 10859 10857 10853 10849 10847 10843 10839 10835 10832 10827 10823 10819 10814 10809 10805 10800 10795 10790 10786 10783 10780 10775 10771 10765 10759 10753 10747 10740 10735 10731 10728 10726 10723 10719 10715 10710 10707 10704 10703 10700 10696 10692 10688 10683 10678 10675 10672 10667 10662 10660 10659 10659 10659 10654 10650 10651 10654 10654 10657 10659 10661 10665 10669 10674 10679 10683 10688 10694 10700 10707 10715 10723 10731 10740 10745 10752 10762 10769 10773 10781 10789 10794
10856 10853 10852 10853 10851 10847 10844 10841 10838 10835 10831 10826 10822 10818 10813 10808 10802 10797 10793 10789 10784 10781 10777 10774 10769 10764 10757 10750 10745 10739 10733 10728 10724 10720 10717 10715 10710 10706 10702 10699 10695 10692 10690 10687 10684 10679 10674 10669 10665 10661 10656 10651 10649 10648 10648 10647 10642 10638 10639 10641 10642 10645 10649 10651 10654 10658 10662 10667 10671 10677 10683 10688 10694 10703 10711 10719 10728 10735 10742 10751 10759 10765 10774 10783 10787
10848 10847 10846 10846 10843 10840 10838 10835 10832 10830 10825 10819 10815 10811 10807 10801 10795 10790 10786 10783 10778 10774 10770 10765 10761 10756 10749 10742 10736 10731 10725 10720 10715 10711 10709 10706 10701 10696 10693 10690 10687 10684 10680 10676 10673 10669 10664 10659 10654 10649 10645 10641 10639 10636 10636 10635 10631 10627 10628 10631 10632 10635 10638 10640 10643 10646 10651 10656 10661 10666 10673 10677 10682 10690 10699 10707 10716 10724 10732 10742 10751 10757 10766 10773 10778
10842 10840 10840 10838 10835 10832 10830 10828 10825 10822 10816 10810 10805 10802 10798 10792 10787 10782 10779 10775 10771 10766 10762 10756 10750 10746 10740 10734 10728 10723 10718 10713 10708 10704 10701 10699 10693 10687 10683 10680 10677 10674 10669 10665 10661 10657 10653 10648 10642 10638 10634 10632 10629 10626 10623 10623 10620 10617 10618 10621 10623 10624 10627 10630 10632 10636 10640 10645 10651 10657 10662 10667 10671 10678 10686 10695 10705 10715 10723 10732 10741 10748 10756 10764 10770
10834 10831 10831 10829 10825 10823 10821 10819 10816 10812 10807 10802 10797 10792 10788 10783 10778 10774 10770 10767 10763 10759 10754 10748 10741 10736 10731 10726 10720 10715 10710 10706 10701 10696 10694 10691 10685 10679 10675 10671 10666 10662 10658 10653 10649 10645 10641 10636 10631 10626 10623 10621 10620 10617 10613 10611 10610 10608 10609 10612 10613 10614 10617 10619 10622 10625 10630 10635 10641 10646 10652 10657 10661 10666 10675 10685 10696 10705 10713 10722 10730 10738 10747 10756 10762
10824 10821 10821 10819 10816 10813 10812 10809 10805 10801 10796 10793 10788 10784 10780 10775 10770 10766 10761 10757 10754 10750 10745 10739 10732 10726 10721 10717 10712 10706 10700 10697 10692 10688 10685 10681 10675 10670 10666 10661 10656 10651 10647 10643 10639 10635 10630 10625 10620 10616 10612 10609 10608 10607 10604 10602 10600 10600 10600 10602 10604 10605 10607 10609 10612 10615 10620 10624 10630 10635 10640 10646 10649 10655 10665 10677 10687 10695 10702 10711 10721 10730 10739 10748 10755
10815 10814 10814 10811 10807 10805 10803 10799 10794 10790 10787 10784 10781 10777 10773 10768 10763 10758 10752 10746 10742 10738 10733 10728 10723 10716 10711 10707 10703 10696 10690 10688 10685 10680 10676 10672 10666 10660 10657 10651 10645 10641 10637 10633 10629 10624 10620 10615 10610 10607 10604 10600 10597 10595 10593 10592 10591 10591 10592 10593 10595 10597 10599 10600 10603 10606 10610 10614 10619 10623 10628 10634 10639 10646 10656 10669 10679 10685 10693 10704 10715 10724 10732 10741 10749
10809 10808 10807 10803 10799 10797 10794 10790 10785 10782 10779 10776 10772 10768 10764 10760 10754 10748 10742 10736 10730 10725 10721 10716 10711 10706 10701 10698 10694 10687 10681 10679 10676 10673 10669 10665 10658 10653 10648 10642 10635 10630 10626 10622 10618 10614 10611 10606 10601 10597 10595 10593 10589 10586 10585 10584 10582 10582 10583 10584 10587 10589 10591 10592 10594 10597 10601 10605 10608 10612 10617 10624 10632 10639 10649 10662 10671 10677 10687 10700 10709 10717 10725 10734 10741
10803 10801 10798 10794 10791 10789 10787 10783 10779 10775 10771 10767 10762 10758 10754 10750 10743 10738 10733 10727 10720 10715 10711 10707 10701 10696 10691 10688 10684 10678 10673 10670 10667 10665 10662 10657 10651 10645 10640 10633 10627 10621 10617 10612 10609 10606 10603 10598 10593 10589 10586 10585 10582 10579 10577 10577 10576 10575 10575 10577 10579 10582 10583 10584 10586 10589 10593 10596 10598 10602 10608 10617 10625 10632 10643 10655 10663 10672 10684 10694 10700 10708 10718 10727 10733
10793 10790 10788 10785 10783 10782 10780 10777 10773 10769 10764 10759 10753 10748 10743 10739 10733 10728 10723 10718 10712 10707 10704 10700 10695 10688 10683 10679 10673 10668 10664 10660 10656 10655 10652 10647 10641 10636 10631 10624 10619 10613 10609 10604 10600 10597 10594 10591 10586 10582 10579 10578 10575 10573 10571 10571 10570 10569 10570 10572 10574 10575 10576 10578 10580 10583 10585 10588 10590 10594 10601 10610 10618 10626 10636 10646 10656 10667 10677 10683 10690 10702 10713 10719 10726
10783 10781 10779 10777 10775 10775 10774 10770 10765 10760 10755 10749 10743 10739 10735 10730 10726 10722 10716 10709 10703 10699 10695 10691 10686 10680 10675 10670 10664 10659 10656 10651 10647 10644 10642 10638 10633 10627 10621 10616 10610 10605 10600 10596 10592 10588 10586 10583 10579 10575 10573 10570 10568 10567 10566 10565 10565 10565 10566 10568 10570 10570 10571 10573 10575 10578 10579 10580 10584 10589 10595 10602 10611 10619 10628 10638 10649 10659 10666 10673 10683 10696 10705 10711 10720
10773 10772 10771 10769 10768 10768 10765 10761 10755 10750 10744 10738 10733 10729 10726 10722 10718 10714 10708 10700 10692 10687 10683 10679 10675 10671 10667 10663 10658 10652 10648 10644 10638 10634 10631 10628 10624 10618 10612 10607 10603 10597 10592 10588 10584 10581 10578 10576 10573 10570 10567 10564 10562 10562 10562 10561 10560 10561 10563 10565 10566 10567 10568 10569 10571 10573 10574 10575 10579 10585 10590 10596 10604 10612 10621 10631 10641 10650 10657 10666 10677 10688 10697 10705 10715
10763 10761 10760 10759 10759 10758 10754 10749 10744 10740 10734 10729 10724 10719 10716 10713 10709 10704 10698 10691 10684 10677 10672 10666 10662 10660 10657 10655 10651 10644 10639 10635 10630 10624 10620 10617 10614 10609 10603 10599 10595 10590 10585 10580 10577 10574 10571 10569 10567 10565 10562 10559 10557 10557 10557 10557 10557 10558 10560 10562 10564 10564 10565 10566 10567 10569 10569 10570 10575 10579 10583 10589 10598 10607 10614 10624 10633 10641 10649 10659 10670 10680 10689 10699 10707
10753 10749 10749 10749 10749 10747 10742 10738 10735 10731 10726 10721 10716 10711 10706 10703 10699 10693 10687 10680 10674 10669 10663 10657 10652 10648 10645 10642 10639 10634 10630 10625 10620 10615 10611 10607 10604 10600 10595 10591 10586 10582 10577 10572 10569 10566 10563 10561 10560 10559 10557 10554 10553 10553 10553 10553 10554 10556 10558 10560 10561 10562 10562 10563 10564 10564 10565 10567 10570 10573 10577 10584 10593 10600 10608 10617 10625 10633 10641 10650 10661 10671 10682 10691 10699
10742 10738 10737 10738 10739 10736 10731 10727 10725 10721 10717 10712 10707 10703 10697 10692 10688 10683 10676 10670 10666 10661 10656 10650 10644 10639 10635 10631 10627 10623 10620 10615 10609 10605 10601 10598 10594 10590 10586 10582 10578 10573 10569 10565 10562 10559 10556 10554 10554 10553 10551 10549 10549 10549 10550 10551 10552 10554 10556 10558 10559 10559 10560 10560 10560 10561 10561 10563 10565 10569 10575 10581 10586 10592 10600 10610 10618 10625 10633 10642 10653 10663 10674 10682 10689
10731 10728 10727 10727 10729 10726 10721 10716 10713 10710 10706 10702 10698 10693 10688 10682 10678 10672 10666 10662 10657 10652 10647 10642 10636 10631 10627 10623 10618 10614 10611 10605 10599 10594 10591 10587 10584 10580 10577 10573 10569 10565 10560 10557 10555 10552 10549 10547 10547 10547 10546 10545 10545 10546 10547 10548 10550 10551 10553 10555 10556 10557 10557 10557 10557 10557 10558 10560 10562 10566 10572 10576 10579 10585 10593 10602 10611 10618 10626 10636 10647 10657 10667 10675 10682
10719 10718 10717 10716 10718 10716 10711 10707 10704 10701 10697 10693 10688 10682 10677 10672 10667 10661 10656 10652 10647 10641 10636 10632 10627 10624 10619 10614 10609 10605 10602 10597 10590 10586 10582 10578 10574 10571 10568 10565 10561 10557 10553 10550 10548 10546 10544 10542 10541 10541 10541 10541 10542 10543 10545 10546 10547 10549 10551 10552 10553 10554 10554 10554 10555 10555 10555 10557 10559 10563 10568 10572 10576 10582 10589 10597 10605 10613 10622 10632 10642 10653 10662 10670 10677
10708 10706 10706 10706 10706 10705 10701 10696 10694 10691 10688 10682 10676 10672 10668 10662 10656 10650 10645 10640 10635 10630 10626 10622 10619 10617 10613 10607 10602 10598 10594 10589 10583 10578 10574 10570 10566 10562 10560 10557 10554 10550 10546 10543 10541 10540 10538 10537 10536 10536 10536 10537 10538 10540 10542 10543 10545 10547 10549 10550 10551 10552 10552 10552 10552 10553 10553 10554 10556 10559 10564 10569 10573 10579 10586 10594 10602 10611 10619 10629 10639 10647 10656 10663 10670
10699 10698 10698 10698 10698 10695 10689 10683 10680 10678 10675 10670 10664 10661 10658 10653 10648 10642 10637 10632 10627 10622 10618 10613 10610 10608 10605 10600 10594 10589 10585 10581 10576 10570 10565 10561 10558 10554 10551 10549 10546 10543 10539 10537 10535 10534 10532 10532 10532 10531 10532 10533 10535 10537 10539 10540 10542 10544 10547 10548 10550 10551 10551 10551 10551 10551 10552 10552 10554 10557 10561 10566 10571 10577 10583 10591 10600 10609 10618 10627 10635 10642 10649 10656 10665
10692 10691 10691 10691 10690 10685 10676 10670 10666 10665 10663 10659 10654 10651 10647 10643 10639 10634 10628 10623 10618 10613 10608 10603 10598 10595 10593 10590 10585 10580 10576 10571 10567 10562 10557 10552 10549 10546 10544 10541 10539 10536 10533 10530 10529 10528 10527 10527 10527 10527 10528 10529 10531 10533 10536 10537 10539 10542 10544 10546 10548 10549 10550 10550 10550 10550 10551 10551 10552 10555 10559 10563 10569 10575 10581 10588 10596 10604 10612 10621 10629 10636 10643 10651 10659
10682 10683 10683 10682 10681 10676 10667 10660 10657 10655 10653 10650 10646 10641 10636 10632 10628 10623 10617 10612 10607 10602 10597 10592 10588 10584 10581 10578 10575 10571 10566 10562 10557 10552 10548 10544 10540 10537 10536 10534 10532 10530 10526 10524 10523 10523 10522 10522 10523 10523 10524 10525 10527 10530 10532 10534 10536 10539 10541 10544 10546 10547 10548 10548 10549 10549 10550 10550 10551 10553 10556 10561 10567 10573 10579 10585 10592 10600 10607 10615 10623 10631 10640 10647 10653
10674 10673 10673 10673 10671 10667 10661 10655 10651 10647 10645 10643 10639 10633 10628 10623 10618 10613 10608 10604 10598 10593 10588 10583 10578 10574 10570 10567 10564 10560 10556 10552 10548 10543 10539 10535 10532 10529 10527 10526 10525 10523 10521 10518 10518 10518 10517 10518 10518 10519 10520 10521 10523 10526 10528 10531 10533 10535 10538 10541 10543 10545 10546 10547 10547 10548 10549 10549 10550 10552 10555 10559 10564 10570 10576 10582 10589 10596 10604 10612 10620 10628 10636 10643 10649
10665 10663 10663 10663 10660 10655 10652 10648 10644 10639 10635 10633 10631 10626 10620 10615 10609 10603 10598 10594 10588 10583 10578 10573 10567 10563 10560 10557 10553 10549 10546 10542 10539 10535 10531 10527 10524 10521 10519 10518 10518 10517 10515 10513 10513 10513 10512 10513 10514 10515 10515 10517 10519 10522 10525 10527 10529 10532 10535 10537 10540 10542 10544 10545 10546 10547 10547 10548 10549 10551 10553 10557 10562 10567 10573 10579 10587 10594 10602 10609 10617 10623 10629 10636 10643
10656 10654 10653 10652 10648 10643 10639 10637 10633 10628 10624 10621 10620 10617 10612 10605 10599 10593 10589 10584 10579 10574 10568 10562 10557 10554 10551 10548 10544 10540 10535 10532 10529 10526 10523 10519 10516 10514 10511 10510 10511 10511 10509 10508 10508 10508 10507 10508 10509 10510 10511 10513 10515 10518 10521 10523 10525 10528 10531 10534 10537 10539 10541 10543 10544 10545 10546 10547 10548 10550 10552 10555 10559 10564 10570 10576 10583 10590 10597 10605 10612 10618 10624 10630 10636
10648 10645 10642 10640 10638 10633 10629 10625 10621 10616 10611 10608 10607 10606 10602 10596 10589 10584 10579 10573 10568 10564 10558 10552 10547 10544 10542 10539 10536 10532 10526 10522 10518 10516 10514 10512 10509 10507 10504 10503 10503 10504 10504 10503 10502 10503 10503 10503 10504 10505 10506 10508 10511 10514 10516 10519 10521 10524 10527 10531 10533 10536 10538 10541 10542 10544 10545 10545 10547 10549 10551 10553 10557 10562 10567 10573 10579 10585 10592 10599 10607 10613 10618 10624 10629
10638 10634 10631 10629 10626 10623 10619 10616 10611 10606 10600 10596 10593 10592 10590 10585 10580 10575 10569 10563 10558 10554 10548 10542 10537 10534 10531 10529 10526 10523 10518 10514 10510 10507 10505 10505 10503 10500 10498 10497 10497 10497 10498 10497 10497 10498 10498 10498 10499 10500 10502 10504 10506 10509 10512 10515 10518 10520 10524 10527 10530 10533 10535 10538 10540 10542 10543 10544 10545 10547 10549 10552 10555 10559 10565 10570 10575 10582 10588 10595 10602 10607 10612 10618 10624
10627 10623 10620 10618 10615 10611 10607 10604 10600 10596 10592 10587 10583 10579 10576 10573 10569 10565 10559 10553 10548 10543 10537 10531 10527 10524 10521 10519 10516 10513 10509 10506 10502 10499 10497 10496 10495 10493 10492 10491 10490 10490 10491 10491 10492 10492 10493 10493 10494 10495 10497 10499 10502 10505 10508 10511 10513 10516 10519 10523 10526 10529 10531 10534 10537 10539 10541 10542 10543 10545 10547 10550 10553 10557 10561 10567 10572 10578 10584 10591 10597 10601 10606 10612 10618
10613 10611 10610 10608 10604 10600 10596 10592 10589 10585 10581 10577 10573 10569 10565 10561 10558 10554 10549 10543 10538 10533 10527 10521 10517 10514 10511 10509 10506 10503 10500 10497 10494 10491 10489 10488 10488 10486 10485 10484 10484 10484 10484 10485 10486 10487 10487 10488 10489 10490 10491 10494 10497 10500 10503 10506 10509 10512 10515 10518 10521 10524 10527 10531 10533 10536 10538 10540 10541 10543 10545 10548 10551 10554 10558 10562 10568 10574 10579 10585 10590 10595 10599 10604 10609
10599 10599 10599 10595 10592 10589 10586 10582 10579 10575 10570 10566 10563 10560 10554 10549 10546 10543 10539 10533 10528 10523 10517 10512 10508 10505 10503 10500 10497 10495 10492 10489 10486 10483 10481 10480 10480 10480 10478 10478 10478 10478 10478 10479 10481 10481 10482 10483 10483 10484 10486 10488 10491 10494 10497 10500 10503 10506 10510 10513 10516 10520 10523 10526 10529 10532 10534 10537 10538 10540 10543 10545 10548 10551 10555 10558 10563 10569 10574 10578 10583 10588 10592 10597 10602
10585 10585 10585 10583 10581 10578 10575 10572 10569 10565 10560 10555 10552 10548 10543 10538 10535 10532 10527 10522 10516 10512 10507 10503 10499 10496 10494 10491 10488 10486 10484 10481 10479 10476 10474 10472 10472 10473 10472 10471 10471 10472 10472 10473 10474 10475 10476 10477 10478 10479 10480 10482 10485 10488 10491 10494 10497 10500 10504 10507 10511 10514 10518 10521 10524 10528 10530 10533 10535 10537 10540 10542 10545 10548 10552 10555 10559 10563 10568 10572 10576 10580 10585 10590 10595
10572 10571 10571 10571 10571 10567 10563 10559 10557 10554 10549 10545 10540 10536 10531 10527 10523 10520 10516 10510 10506 10501 10497 10492 10490 10488 10486 10483 10480 10478 10476 10474 10472 10470 10468 10465 10465 10465 10465 10465 10465 10465 10466 10467 10467 10468 10469 10471 10472 10473 10474 10476 10478 10481 10484 10487 10490 10494 10497 10501 10505 10508 10512 10515 10519 10522 10526 10529 10531 10534 10536 10539 10541 10544 10548 10551 10554 10558 10562 10566 10570 10574 10578 10583 10588
10560 10559 10558 10559 10559 10557 10552 10547 10544 10541 10537 10533 10528 10522 10518 10514 10511 10507 10504 10499 10495 10491 10487 10482 10480 10480 10479 10475 10472 10469 10467 10466 10466 10464 10462 10460 10459 10458 10458 10458 10458 10458 10459 10460 10461 10462 10463 10464 10465 10466 10468 10470 10472 10474 10477 10480 10483 10487 10490 10494 10498 10502 10506 10509 10513 10516 10520 10523 10526 10529 10532 10534 10537 10540 10543 10546 10550 10553 10557 10560 10564 10568 10572 10576 10580
10549 10548 10547 10545 10544 10543 10539 10535 10531 10528 10524 10519 10514 10510 10506 10502 10498 10495 10492 10489 10485 10482 10478 10472 10470 10471 10471 10469 10465 10462 10459 10458 10458 10457 10456 10455 10453 10452 10451 10451 10452 10452 10452 10453 10454 10455 10456 10457 10458 10459 10461 10463 10466 10468 10470 10473 10476 10480 10483 10487 10491 10495 10499 10502 10506 10510 10514 10517 10520 10523 10526 10529 10532 10535 10538 10541 10544 10548 10551 10555 10558 10562 10565 10569 10573
10539 10539 10536 10531 10528 10527 10525 10521 10518 10515 10511 10506 10502 10498 10495 10491 10487 10484 10482 10479 10476 10474 10470 10464 10460 10460 10461 10461 10459 10456 10452 10451 10450 10450 10449 10448 10447 10446 10445 10445 10445 10445 10446 10446 10447 10448 10449 10450 10451 10452 10454 10456 10458 10461 10463 10466 10469 10472 10475 10479 10483 10487 10491 10495 10499 10503 10507 10510 10514 10517 10520 10523 10526 10529 10532 10535 10538 10541 10545 10548 10552 10555 10559 10562 10565
10529 10527 10522 10517 10514 10512 10509 10507 10505 10502 10498 10495 10491 10488 10484 10481 10478 10474 10472 10470 10468 10467 10463 10458 10453 10451 10450 10451 10451 10450 10447 10445 10443 10442 10441 10441 10440 10439 10438 10438 10438 10438 10438 10439 10440 10440 10441 10442 10444 10445 10447 10449 10451 10453 10456 10459 10462 10465 10468 10471 10475 10479 10483 10487 10491 10495 10499 10503 10507 10510 10514 10517 10520 10523 10525 10528 10531 10534 10538 10542 10545 10549 10552 10555 10559
10518 10515 10510 10505 10502 10499 10496 10494 10491 10488 10485 10483 10481 10477 10474 10470 10467 10465 10463 10461 10460 10459 10456 10451 10446 10443 10441 10442 10442 10441 10440 10438 10437 10435 10434 10434 10433 10432 10431 10431 10431 10431 10431 10432 10433 10433 10434 10435 10436 10438 10440 10442 10443 10445 10448 10450 10454 10457 10461 10464 10467 10471 10474 10479 10483 10487 10490 10494 10498 10502 10506 10509 10512 10516 10518 10521 10524 10527 10530 10534 10537 10541 10545 10548 10552
10505 10502 10499 10495 10490 10487 10485 10482 10478 10476 10474 10472 10469 10467 10463 10460 10458 10456 10453 10452 10451 10450 10448 10444 10440 10436 10434 10434 10434 10433 10432 10431 10429 10428 10427 10427 10426 10425 10424 10423 10424 10424 10424 10424 10425 10426 10426 10427 10429 10430 10432 10434 10436 10438 10440 10443 10446 10449 10452 10456 10460 10463 10467 10471 10474 10478 10482 10485 10489 10493 10497 10501 10504 10508 10511 10514 10517 10520 10523 10526 10530 10533 10537 10540 10544
10490 10487 10485 10482 10478 10476 10473 10471 10467 10465 10463 10461 10459 10457 10454 10451 10449 10447 10445 10443 10442 10442 10440 10438 10435 10430 10427 10426 10426 10425 10424 10423 10422 10421 10420 10420 10419 10418 10417 10417 10417 10417 10417 10418 10418 10419 10419 10420 10421 10423 10425 10427 10429 10431 10433 10435 10438 10441 10444 10447 10451 10455 10459 10462 10466 10470 10473 10477 10480 10484 10488 10492 10496 10500 10503 10507 10510 10513 10516 10519 10522 10525 10529 10532 10535
10476 10473 10471 10469 10467 10464 10462 10460 10458 10455 10453 10451 10449 10447 10445 10443 10441 10439 10438 10436 10435 10433 10432 10431 10429 10426 10422 10420 10419 10418 10417 10416 10416 10415 10414 10414 10413 10413 10412 10411 10411 10411 10411 10412 10412 10412 10413 10414 10414 10415 10417 10419 10422 10424 10426 10428 10430 10433 10435 10439 10442 10446 10450 10454 10457 10461 10465 10468 10471 10475 10479 10483 10487 10491 10494 10498 10502 10505 10508 10511 10514 10517 10521 10524 10527
10463 10461 10460 10458 10457 10454 10452 10450 10448 10445 10443 10442 10440 10438 10437 10435 10433 10431 10429 10428 10427 10426 10425 10424 10422 10420 10417 10415 10413 10412 10411 10411 10410 10409 10409 10408 10408 10408 10407 10407 10406 10406 10406 10407 10407 10407 10407 10408 10408 10409 10410 10413 10414 10416 10418 10420 10422 10424 10427 10430 10433 10437 10441 10445 10448 10452 10456 10459 10463 10466 10470 10474 10477 10481 10485 10489 10492 10496 10499 10503 10506 10509 10512 10515 10519
10453 10451 10449 10448 10447 10445 10443 10440 10438 10435 10434 10434 10433 10431 10430 10428 10426 10424 10421 10419 10418 10417 10417 10416 10415 10413 10411 10409 10408 10406 10405 10405 10405 10404 10404 10404 10404 10404 10403 10403 10402 10402 10402 10402 10403 10403 10403 10403 10403 10403 10405 10407 10408 10408 10410 10412 10414 10416 10419 10422 10425 10428 10432 10436 10439 10443 10446 10450 10453 10457 10461 10464 10468 10471 10475 10479 10483 10486 10490 10493 10497 10500 10504 10507 10510
10444 10443 10441 10439 10438 10436 10434 10432 10430 10427 10425 10425 10426 10424 10422 10420 10419 10417 10415 10412 10411 10409 10409 10408 10407 10406 10405 10404 10403 10402 10401 10400 10400 10400 10400 10400 10400 10399 10399 10399 10399 10398 10398 10398 10398 10398 10398 10398 10398 10398 10400 10401 10401 10401 10402 10405 10407 10409 10411 10413 10416 10419 10422 10426 10429 10433 10436 10440 10444 10447 10451 10454 10458 10461 10465 10468 10472 10476 10480 10484 10487 10491 10495 10498 10501